| time (UTC) | temp F | wind direction | speed MPH | gust MPH | rain 1hr in | rain 24hr in | rain mn in | humidity % | barometer mb |
| 20260504215033 | 58 | 311 | 8.0 | 23.0 | 0.00 | 0.00 | 0.00 | 39 | 999.7 |
| 20260504214533 | 58 | 299 | 12.0 | 28.0 | 0.00 | 0.00 | 0.00 | 37 | 999.4 |
| 20260504214032 | 58 | 286 | 11.0 | 28.0 | 0.00 | 0.00 | 0.00 | 37 | 999.4 |
| 20260504213531 | 58 | 279 | 11.0 | 23.0 | 0.00 | 0.00 | 0.00 | 37 | 999.3 |
| 20260504213031 | 58 | 288 | 8.0 | 20.0 | 0.00 | 0.00 | 0.00 | 39 | 999.3 |
| 20260504212531 | 58 | 281 | 10.0 | 26.0 | 0.00 | 0.00 | 0.00 | 38 | 999.4 |
| 20260504212030 | 59 | 317 | 10.0 | 22.0 | 0.00 | 0.00 | 0.00 | 37 | 999.3 |
| 20260504211529 | 59 | 205 | 11.0 | 24.0 | 0.00 | 0.00 | 0.00 | 38 | 999.1 |
| 20260504211030 | 59 | 288 | 9.0 | 20.0 | 0.00 | 0.00 | 0.00 | 38 | 999.2 |
| 20260504210528 | 59 | 276 | 9.0 | 21.0 | 0.00 | 0.00 | 0.00 | 38 | 999.1 |
| 20260504210029 | 60 | 275 | 11.0 | 20.0 | 0.00 | 0.00 | 0.00 | 36 | 999.1 |
| 20260504205030 | 60 | 292 | 10.0 | 21.0 | 0.00 | 0.00 | 0.00 | 38 | 999.0 |
| 20260504204539 | 60 | 290 | 11.0 | 21.0 | 0.00 | 0.00 | 0.00 | 40 | 999.0 |
| 20260504204028 | 60 | 271 | 8.0 | 18.0 | 0.00 | 0.00 | 0.00 | 39 | 998.9 |
| 20260504203528 | 60 | 279 | 9.0 | 18.0 | 0.00 | 0.00 | 0.00 | 38 | 998.9 |
| 20260504203029 | 60 | 272 | 9.0 | 23.0 | 0.00 | 0.00 | 0.00 | 40 | 998.8 |
| 20260504202528 | 60 | 266 | 9.0 | 18.0 | 0.00 | 0.00 | 0.00 | 39 | 998.8 |
| 20260504202027 | 60 | 309 | 9.0 | 25.0 | 0.00 | 0.00 | 0.00 | 39 | 998.7 |
| 20260504201527 | 60 | 309 | 15.0 | 26.0 | 0.00 | 0.00 | 0.00 | 38 | 998.6 |
| 20260504201027 | 61 | 292 | 10.0 | 24.0 | 0.00 | 0.00 | 0.00 | 37 | 998.7 |
| 20260504200528 | 61 | 280 | 11.0 | 26.0 | 0.00 | 0.00 | 0.00 | 36 | 998.7 |
| 20260504200026 | 62 | 273 | 10.0 | 26.0 | 0.00 | 0.00 | 0.00 | 38 | 998.5 |
| 20260504195025 | 62 | 267 | 10.0 | 17.0 | 0.00 | 0.00 | 0.00 | 36 | 998.5 |
| 20260504194526 | 62 | 242 | 8.0 | 21.0 | 0.00 | 0.00 | 0.00 | 36 | 998.4 |
| 20260504194024 | 61 | 259 | 8.0 | 22.0 | 0.00 | 0.00 | 0.00 | 36 | 998.3 |
| 20260504193525 | 61 | 259 | 13.0 | 22.0 | 0.00 | 0.00 | 0.00 | 35 | 998.4 |
| 20260504193024 | 61 | 225 | 10.0 | 19.0 | 0.00 | 0.00 | 0.00 | 35 | 998.3 |
| 20260504192524 | 62 | 279 | 9.0 | 25.0 | 0.00 | 0.00 | 0.00 | 34 | 998.2 |
| 20260504192023 | 62 | 283 | 12.0 | 25.0 | 0.00 | 0.00 | 0.00 | 34 | 998.3 |
| 20260504191523 | 61 | 283 | 10.0 | 25.0 | 0.00 | 0.00 | 0.00 | 34 | 998.2 |
| 20260504191022 | 61 | 270 | 13.0 | 26.0 | 0.00 | 0.00 | 0.00 | 34 | 998.1 |
| 20260504190523 | 61 | 275 | 12.0 | 26.0 | 0.00 | 0.00 | 0.00 | 35 | 997.9 |
| 20260504190020 | 60 | 254 | 11.0 | 21.0 | 0.00 | 0.00 | 0.00 | 39 | 997.8 |
| 20260504185021 | 61 | 235 | 9.0 | 18.0 | 0.00 | 0.00 | 0.00 | 37 | 997.7 |
| 20260504184530 | 62 | 265 | 9.0 | 18.0 | 0.00 | 0.00 | 0.00 | 37 | 997.7 |
| 20260504184021 | 62 | 294 | 8.0 | 17.0 | 0.00 | 0.00 | 0.00 | 36 | 997.7 |
| 20260504183521 | 61 | 249 | 6.0 | 24.0 | 0.00 | 0.00 | 0.00 | 37 | 997.7 |
| 20260504183022 | 61 | 290 | 10.0 | 24.0 | 0.00 | 0.00 | 0.00 | 38 | 997.6 |
| 20260504182519 | 62 | 267 | 8.0 | 19.0 | 0.00 | 0.00 | 0.00 | 42 | 997.5 |
| 20260504182018 | 61 | 290 | 9.0 | 20.0 | 0.00 | 0.00 | 0.00 | 40 | 997.5 |
| 20260504181522 | 61 | 277 | 8.0 | 24.0 | 0.00 | 0.00 | 0.00 | 39 | 997.3 |
| 20260504181018 | 62 | 264 | 13.0 | 26.0 | 0.00 | 0.00 | 0.00 | 37 | 997.2 |
| 20260504180517 | 62 | 296 | 12.0 | 26.0 | 0.00 | 0.00 | 0.00 | 38 | 997.2 |
| 20260504180017 | 62 | 294 | 9.0 | 23.0 | 0.00 | 0.00 | 0.00 | 38 | 997.2 |
| 20260504175017 | 62 | 246 | 12.0 | 26.0 | 0.00 | 0.00 | 0.00 | 36 | 997.1 |
| 20260504174516 | 62 | 255 | 11.0 | 27.0 | 0.00 | 0.00 | 0.00 | 36 | 997.1 |
| 20260504174016 | 62 | 288 | 11.0 | 27.0 | 0.00 | 0.00 | 0.00 | 35 | 997.0 |
| 20260504173516 | 63 | 275 | 10.0 | 18.0 | 0.00 | 0.00 | 0.00 | 36 | 996.9 |
| 20260504173014 | 64 | 267 | 7.0 | 17.0 | 0.00 | 0.00 | 0.00 | 38 | 996.9 |
| 20260504172517 | 63 | 285 | 7.0 | 20.0 | 0.00 | 0.00 | 0.00 | 39 | 996.8 |
| 20260504172014 | 63 | 234 | 10.0 | 20.0 | 0.00 | 0.00 | 0.00 | 39 | 996.9 |
| 20260504171515 | 63 | 229 | 9.0 | 21.0 | 0.00 | 0.00 | 0.00 | 38 | 996.9 |
| 20260504171016 | 63 | 271 | 8.0 | 21.0 | 0.00 | 0.00 | 0.00 | 37 | 996.9 |
| 20260504170515 | 63 | 273 | 5.0 | 18.0 | 0.00 | 0.00 | 0.00 | 40 | 996.9 |
| 20260504151059 | 61 | 290 | 8.0 | 19.0 | 0.00 | 0.00 | 0.00 | 38 | 996.5 |
| 20260504150558 | 61 | 238 | 9.0 | 19.0 | 0.00 | 0.00 | 0.00 | 39 | 996.6 |
| 20260504141050 | 61 | 288 | 8.0 | 21.0 | 0.00 | 0.00 | 0.00 | 42 | 996.0 |
| 20260504140549 | 61 | 298 | 8.0 | 20.0 | 0.00 | 0.00 | 0.00 | 45 | 996.1 |
| 20260504130543 | 60 | 263 | 8.0 | 25.0 | 0.00 | 0.00 | 0.00 | 48 | 995.7 |
| 20260504110521 | 54 | 198 | 3.0 | 11.0 | 0.00 | 0.00 | 0.00 | 52 | 994.8 |
| 20260504100516 | 54 | 232 | 3.0 | 12.0 | 0.00 | 0.00 | 0.00 | 52 | 995.7 |
| 20260504081515 | 53 | 166 | 1.0 | 6.0 | 0.00 | 0.00 | 0.00 | 51 | 997.4 |
| 20260504081007 | 53 | 166 | 0.0 | 3.0 | 0.00 | 0.00 | 0.00 | 51 | 997.5 |
| 20260504080506 | 53 | 166 | 0.0 | 3.0 | 0.00 | 0.00 | 0.00 | 52 | 997.5 |
| 20260504050545 | 56 | 198 | 1.0 | 5.0 | 0.00 | 0.00 | 0.00 | 42 | 1000.6 |
| 20260504045042 | 57 | 198 | 2.0 | 6.0 | 0.00 | 0.00 | 0.00 | 41 | 1000.9 |
| 20260504044542 | 57 | 208 | 1.0 | 4.0 | 0.00 | 0.00 | 0.00 | 40 | 1001.0 |
| 20260504044041 | 57 | 208 | 1.0 | 4.0 | 0.00 | 0.00 | 0.00 | 40 | 1001.1 |
| 20260504043541 | 57 | 208 | 1.0 | 4.0 | 0.00 | 0.00 | 0.00 | 39 | 1001.2 |
| 20260504043043 | 58 | 208 | 1.0 | 6.0 | 0.00 | 0.00 | 0.00 | 39 | 1001.3 |
| 20260504042539 | 58 | 208 | 2.0 | 6.0 | 0.00 | 0.00 | 0.00 | 38 | 1001.3 |
| 20260504042038 | 58 | 265 | 0.0 | 2.0 | 0.00 | 0.00 | 0.00 | 37 | 1001.4 |
| 20260504041538 | 59 | 265 | 0.0 | 2.0 | 0.00 | 0.00 | 0.00 | 37 | 1001.5 |
| 20260504041038 | 59 | 265 | 1.0 | 2.0 | 0.00 | 0.00 | 0.00 | 37 | 1001.6 |
| 20260504040537 | 59 | 265 | 0.0 | 3.0 | 0.00 | 0.00 | 0.00 | 37 | 1001.7 |
| 20260504040036 | 59 | 265 | 0.0 | 3.0 | 0.00 | 0.00 | 0.00 | 37 | 1001.8 |
| 20260504035038 | 59 | 265 | 0.0 | 3.0 | 0.00 | 0.00 | 0.00 | 36 | 1002.0 |
| 20260504034536 | 59 | 265 | 1.0 | 3.0 | 0.00 | 0.00 | 0.00 | 36 | 1002.1 |
| 20260504034035 | 59 | 265 | 0.0 | 3.0 | 0.00 | 0.00 | 0.00 | 36 | 1002.1 |
| 20260504033535 | 59 | 265 | 0.0 | 3.0 | 0.00 | 0.00 | 0.00 | 36 | 1002.2 |
| 20260504033035 | 60 | 265 | 0.0 | 2.0 | 0.00 | 0.00 | 0.00 | 36 | 1002.3 |
| 20260504032534 | 60 | 265 | 0.0 | 2.0 | 0.00 | 0.00 | 0.00 | 36 | 1002.3 |
| 20260504032036 | 60 | 265 | 0.0 | 3.0 | 0.00 | 0.00 | 0.00 | 36 | 1002.4 |
| 20260504031534 | 60 | 265 | 0.0 | 3.0 | 0.00 | 0.00 | 0.00 | 36 | 1002.5 |
| 20260504031032 | 60 | 265 | 1.0 | 2.0 | 0.00 | 0.00 | 0.00 | 36 | 1002.5 |
| 20260504030531 | 60 | 265 | 0.0 | 2.0 | 0.00 | 0.00 | 0.00 | 36 | 1002.5 |
| 20260504030031 | 61 | 265 | 0.0 | 3.0 | 0.00 | 0.00 | 0.00 | 35 | 1002.5 |
| 20260504025031 | 61 | 265 | 1.0 | 4.0 | 0.00 | 0.00 | 0.00 | 35 | 1002.6 |
| 20260504024534 | 61 | 265 | 1.0 | 4.0 | 0.00 | 0.00 | 0.00 | 35 | 1002.6 |
| 20260504024033 | 61 | 265 | 1.0 | 4.0 | 0.00 | 0.00 | 0.00 | 35 | 1002.6 |
| 20260504023530 | 61 | 265 | 1.0 | 3.0 | 0.00 | 0.00 | 0.00 | 35 | 1002.6 |
| 20260504023034 | 61 | 265 | 1.0 | 6.0 | 0.00 | 0.00 | 0.00 | 35 | 1002.6 |
| 20260504022533 | 61 | 265 | 2.0 | 6.0 | 0.00 | 0.00 | 0.00 | 35 | 1002.6 |
| 20260504022031 | 62 | 266 | 1.0 | 3.0 | 0.00 | 0.00 | 0.00 | 35 | 1002.6 |
| 20260504021529 | 62 | 266 | 1.0 | 3.0 | 0.00 | 0.00 | 0.00 | 35 | 1002.6 |
| 20260504021030 | 62 | 266 | 1.0 | 3.0 | 0.00 | 0.00 | 0.00 | 35 | 1002.6 |
| 20260504020529 | 62 | 266 | 0.0 | 4.0 | 0.00 | 0.00 | 0.00 | 35 | 1002.6 |
| 20260504020029 | 62 | 266 | 1.0 | 4.0 | 0.00 | 0.00 | 0.00 | 34 | 1002.5 |
| 20260504015029 | 63 | 266 | 1.0 | 4.0 | 0.00 | 0.00 | 0.00 | 34 | 1002.6 |
| 20260504014538 | 63 | 266 | 1.0 | 4.0 | 0.00 | 0.00 | 0.00 | 34 | 1002.7 |
| 20260504014028 | 63 | 266 | 1.0 | 7.0 | 0.00 | 0.00 | 0.00 | 33 | 1002.7 |
| 20260504013528 | 64 | 266 | 1.0 | 7.0 | 0.00 | 0.00 | 0.00 | 33 | 1002.7 |
| 20260504013036 | 64 | 268 | 1.0 | 4.0 | 0.00 | 0.00 | 0.00 | 32 | 1002.7 |
| 20260504012528 | 64 | 268 | 1.0 | 4.0 | 0.00 | 0.00 | 0.00 | 32 | 1002.7 |
| 20260504012028 | 65 | 268 | 0.0 | 4.0 | 0.00 | 0.00 | 0.00 | 32 | 1002.7 |
| 20260504011527 | 65 | 268 | 1.0 | 6.0 | 0.00 | 0.00 | 0.00 | 32 | 1002.7 |
| 20260504011026 | 65 | 269 | 1.0 | 6.0 | 0.00 | 0.00 | 0.00 | 31 | 1002.8 |
| 20260504010528 | 65 | 269 | 1.0 | 6.0 | 0.00 | 0.00 | 0.00 | 30 | 1002.8 |
| 20260504010026 | 66 | 269 | 1.0 | 7.0 | 0.00 | 0.00 | 0.00 | 30 | 1002.8 |
| 20260504005027 | 66 | 269 | 2.0 | 8.0 | 0.00 | 0.00 | 0.00 | 31 | 1002.8 |
| 20260504004532 | 66 | 269 | 4.0 | 8.0 | 0.00 | 0.00 | 0.00 | 29 | 1002.8 |
| 20260504004026 | 66 | 277 | 2.0 | 8.0 | 0.00 | 0.00 | 0.00 | 30 | 1002.8 |
| 20260504003526 | 66 | 258 | 1.0 | 9.0 | 0.00 | 0.00 | 0.00 | 30 | 1002.8 |
| 20260504003026 | 66 | 259 | 2.0 | 9.0 | 0.00 | 0.00 | 0.00 | 29 | 1002.9 |
| 20260504002526 | 67 | 247 | 4.0 | 8.0 | 0.00 | 0.00 | 0.00 | 28 | 1002.9 |
| 20260504002026 | 67 | 249 | 4.0 | 8.0 | 0.00 | 0.00 | 0.00 | 29 | 1003.0 |
| 20260504001526 | 67 | 263 | 5.0 | 9.0 | 0.00 | 0.00 | 0.00 | 28 | 1003.1 |
| 20260504001026 | 68 | 267 | 2.0 | 12.0 | 0.00 | 0.00 | 0.00 | 28 | 1003.1 |
| 20260504000529 | 68 | 261 | 5.0 | 12.0 | 0.00 | 0.00 | 0.00 | 26 | 1003.0 |
| 20260504000026 | 68 | 242 | 4.0 | 12.0 | 0.00 | 0.00 | 0.00 | 26 | 1003.0 |
| 20260503235027 | 69 | 259 | 6.0 | 10.0 | 0.00 | 0.00 | 0.00 | 24 | 1003.0 |
| 20260503234527 | 68 | 227 | 3.0 | 10.0 | 0.00 | 0.00 | 0.00 | 27 | 1003.0 |
| 20260503234028 | 69 | 275 | 3.0 | 12.0 | 0.00 | 0.00 | 0.00 | 26 | 1003.0 |
| 20260503233524 | 69 | 271 | 3.0 | 13.0 | 0.00 | 0.00 | 0.00 | 25 | 1003.1 |
| 20260503233024 | 69 | 265 | 4.0 | 12.0 | 0.00 | 0.00 | 0.00 | 25 | 1003.2 |
| 20260503232524 | 69 | 299 | 4.0 | 13.0 | 0.00 | 0.00 | 0.00 | 24 | 1003.2 |
| 20260503232027 | 69 | 253 | 5.0 | 13.0 | 0.00 | 0.00 | 0.00 | 25 | 1003.2 |
| 20260503231524 | 69 | 284 | 5.0 | 11.0 | 0.00 | 0.00 | 0.00 | 25 | 1003.2 |
| 20260503231024 | 69 | 298 | 5.0 | 15.0 | 0.00 | 0.00 | 0.00 | 25 | 1003.2 |
| 20260503230523 | 70 | 263 | 7.0 | 15.0 | 0.00 | 0.00 | 0.00 | 25 | 1003.2 |
| 20260503230024 | 69 | 253 | 7.0 | 15.0 | 0.00 | 0.00 | 0.00 | 26 | 1003.3 |
| 20260503225024 | 70 | 301 | 6.0 | 14.0 | 0.00 | 0.00 | 0.00 | 24 | 1003.3 |
| 20260503224524 | 70 | 271 | 2.0 | 9.0 | 0.00 | 0.00 | 0.00 | 23 | 1003.3 |
| 20260503224027 | 70 | 291 | 2.0 | 12.0 | 0.00 | 0.00 | 0.00 | 22 | 1003.3 |
| 20260503223523 | 70 | 292 | 5.0 | 12.0 | 0.00 | 0.00 | 0.00 | 22 | 1003.4 |
| 20260503223023 | 70 | 286 | 4.0 | 13.0 | 0.00 | 0.00 | 0.00 | 23 | 1003.4 |
| 20260503222522 | 70 | 261 | 7.0 | 13.0 | 0.00 | 0.00 | 0.00 | 22 | 1003.4 |
| 20260503222022 | 70 | 291 | 4.0 | 11.0 | 0.00 | 0.00 | 0.00 | 23 | 1003.5 |
| 20260503221522 | 70 | 261 | 5.0 | 14.0 | 0.00 | 0.00 | 0.00 | 25 | 1003.4 |
| 20260503221023 | 70 | 290 | 6.0 | 14.0 | 0.00 | 0.00 | 0.00 | 24 | 1003.5 |
| 20260503220522 | 70 | 281 | 5.0 | 18.0 | 0.00 | 0.00 | 0.00 | 26 | 1003.5 |
| 20260503220022 | 70 | 270 | 6.0 | 18.0 | 0.00 | 0.00 | 0.00 | 25 | 1003.4 |